Flag for Brazil Weather past 2 weeks in Caruaru, Pernambuco, Brazil

Now
82 °F

Passing clouds.


Feels Like: 87 °F
Forecast: N/A
Wind: 9 mph from Southeast

Location: Recife Aeroporto

Current Time: Apr 1, 2015 at 8:11:02 PM

Latest Report: Apr 1, 2015 at 7:00 PM


Visibility: N/A

Pressure: 29.89 "Hg

Humidity: 70%

Dew point: 72 °F

Location of CaruaruLocation

Historic Weather in Caruaru — Graph

°F

Caruaru temperature yesterday

Maximum temperature yesterday: 86 °F (at 11:00 AM)
Minimum temperature yesterday: 75 °F (at 3:00 AM)
Average temperature yesterday: 81 °F

Past Weeks' High & Low Weather Summary

 TemperatureHumidityPressure
High88 °F (Mar 25, 2:00 PM)100% (Mar 20, 3:00 AM)30.04 "Hg (Mar 20, 3:00 AM)
Low73 °F (Mar 22, 7:00 AM)62% (Mar 27, 4:00 PM)29.77 "Hg (Mar 20, 4:00 AM)
Average81 °F78%29.91 "Hg
* Reported Mar 17 7:00 PM — Apr 1 7:00 PM, Caruaru, Weather by CustomWeather, © 2015

Note: Actual official high and low records may vary slightly from our data, if they occured in-between our weather recording intervals... More about our weather records

Advertising

Caruaru weather history for previous 24 hours

 ConditionsComfort  
Time TempWeatherWind HumidityBarometerVisibility
7:00 PM
Wed, Apr 1
82 °FPassing clouds.9 mph70%29.89 "HgN/A
6:00 PM82 °FPassing clouds.8 mph70%29.86 "HgN/A
5:00 PM82 °FPassing clouds.8 mph70%29.86 "HgN/A
4:00 PM84 °FPassing clouds.12 mph66%29.86 "HgN/A
3:00 PM84 °FPassing clouds.10 mph66%29.86 "HgN/A
2:00 PM86 °FPassing clouds.9 mph62%29.86 "HgN/A
1:00 PM86 °FPassing clouds.10 mph62%29.89 "HgN/A
12:00 PM84 °FPassing clouds.10 mph62%29.92 "HgN/A
11:00 AM84 °FScattered clouds.9 mph66%29.95 "HgN/A
10:00 AM84 °FPassing clouds.9 mph66%29.95 "HgN/A
9:00 AM84 °FPassing clouds.9 mph66%29.95 "HgN/A
8:00 AM84 °FPassing clouds.8 mph66%29.95 "HgN/A
7:00 AM79 °FPassing clouds.5 mph79%29.92 "HgN/A
6:00 AM75 °FPassing clouds.2 mph89%29.92 "HgN/A
5:00 AM73 °FPassing clouds.2 mph89%29.89 "HgN/A
4:00 AM75 °FPassing clouds.5 mph89%29.89 "HgN/A
3:00 AM75 °FPassing clouds.5 mph89%29.89 "HgN/A
2:00 AM77 °FPassing clouds.5 mph83%29.89 "HgN/A
1:00 AM79 °FPassing clouds.7 mph74%29.89 "HgN/A
12:00 AM81 °FPassing clouds.8 mph70%29.92 "HgN/A
11:00 PM
Tue, Mar 31
81 °FPassing clouds.7 mph70%29.92 "HgN/A
10:00 PM81 °FPassing clouds.7 mph74%29.92 "HgN/A
9:00 PM81 °FPassing clouds.10 mph74%29.92 "HgN/A
8:00 PM81 °FClear.12 mph74%29.89 "Hg10 mi
Weather by CustomWeather, © 2015

See weather overviewHow to use our weather pages